Location: Unspecified
(0.0000°N, 0.0000°E)
Time: 18:39:30
(UTC+00:00)

Vanguard 3 - Pass Details

Date: 28 September 2023
Orbit: 507 x 3241 km, 33.3° (Epoch: 29 November)

Event Time Altitude Azimuth Distance (km) Brightness Sun altitude
Rises 08:34:53 0° 218° (SW) 5,102 11.0 41.0°
Reaches altitude 10° 08:42:08 10° 188° (S) 4,841 11.2 42.8°
Maximum altitude 08:46:25 12° 170° (S) 5,064 11.5 43.9°
Drops below altitude 10° 08:51:14 10° 152° (SSE) 5,553 11.8 45.1°
Sets 09:01:57 0° 125° (SE) 7,080 12.5 47.8°
